• In Czech Republic
  • List of Countries
  • For 7 days
  • Water Temperature
  • Satellite Maps
  • Weather Map
  • Weather Widgets
  • user-avatar
    Login

    Hourly Weather Mendoza

    Today, 26 September, Wednesday

    Time Temperature Precipitation Wind Pressure Humidity
    00:00 +19°C° 0 mm 5 mps 696 mmHg 45%
    01:00 +17°C° 0 mm 5 mps 695 mmHg 47%
    02:00 +17°C° 0 mm 5 mps 695 mmHg 49%
    03:00 +16°C° 0 mm 5 mps 695 mmHg 51%
    04:00 +16°C° 0 mm 5 mps 695 mmHg 53%
    05:00 +16°C° 0 mm 5 mps 695 mmHg 52%
    06:00 +17°C° 0 mm 5 mps 696 mmHg 51%
    07:00 +17°C° 0 mm 5 mps 696 mmHg 51%
    08:00 +19°C° 0 mm 6 mps 696 mmHg 49%
    09:00 +20°C° 0 mm 6 mps 696 mmHg 48%
    10:00 +22°C° 0 mm 6 mps 697 mmHg 47%
    11:00 +22°C° 0 mm 6 mps 696 mmHg 47%
    12:00 +22°C° 0 mm 6 mps 696 mmHg 48%
    13:00 +23°C° 0 mm 7 mps 695 mmHg 48%
    14:00 +22°C° 0 mm 7 mps 695 mmHg 52%
    15:00 +21°C° 0 mm 7 mps 695 mmHg 57%
    16:00 +20°C° 0 mm 6 mps 695 mmHg 61%
    17:00 +19°C° 0 mm 6 mps 695 mmHg 66%
    18:00 +19°C° 0 mm 5 mps 696 mmHg 70%
    19:00 +17°C° 0 mm 5 mps 696 mmHg 74%
    20:00 +17°C° 0 mm 5 mps 696 mmHg 75%
    21:00 +17°C° 0 mm 4 mps 696 mmHg 75%
    22:00 +17°C° 0 mm 4 mps 696 mmHg 76%
    23:00 +17°C° 0 mm 4 mps 696 mmHg 75%

    Tomorrow, 27 September, Thursday

    Time Temperature Precipitation Wind Pressure Humidity
    00:00 +17°C° 0 mm 3 mps 696 mmHg 75%
    01:00 +16°C° 0 mm 3 mps 695 mmHg 74%
    02:00 +16°C° 0 mm 3 mps 695 mmHg 74%
    03:00 +16°C° 0 mm 3 mps 695 mmHg 74%
    04:00 +16°C° 0 mm 3 mps 695 mmHg 74%
    05:00 +16°C° 0 mm 3 mps 695 mmHg 72%
    06:00 +17°C° 0 mm 3 mps 695 mmHg 70%
    07:00 +17°C° 0 mm 3 mps 696 mmHg 67%
    08:00 +18°C° 0 mm 3 mps 696 mmHg 64%
    09:00 +19°C° 0 mm 3 mps 695 mmHg 61%
    10:00 +20°C° 0 mm 3 mps 695 mmHg 57%
    11:00 +22°C° 0 mm 4 mps 695 mmHg 52%
    12:00 +23°C° 0 mm 4 mps 694 mmHg 46%
    13:00 +26°C° 0 mm 4 mps 694 mmHg 40%
    14:00 +26°C° 0 mm 4 mps 694 mmHg 38%
    15:00 +26°C° 0 mm 4 mps 694 mmHg 37%
    16:00 +27°C° 0 mm 4 mps 693 mmHg 36%
    17:00 +26°C° 0 mm 3 mps 694 mmHg 39%
    18:00 +25°C° 0 mm 3 mps 694 mmHg 41%
    19:00 +24°C° 0 mm 3 mps 695 mmHg 44%
    20:00 +22°C° 0 mm 3 mps 695 mmHg 46%
    21:00 +21°C° 0 mm 3 mps 695 mmHg 47%
    22:00 +21°C° 0 mm 4 mps 695 mmHg 48%
    23:00 +20°C° 0 mm 4 mps 695 mmHg 50%

    Day after tomorrow, 28 September, Friday

    Time Temperature Precipitation Wind Pressure Humidity
    00:00 +20°C° 0 mm 4 mps 694 mmHg 52%
    01:00 +19°C° 0 mm 3 mps 694 mmHg 54%
    02:00 +18°C° 0 mm 3 mps 693 mmHg 57%
    03:00 +18°C° 0 mm 3 mps 693 mmHg 60%
    04:00 +18°C° 0 mm 3 mps 693 mmHg 63%
    05:00 +18°C° 0 mm 3 mps 693 mmHg 60%
    06:00 +19°C° 0 mm 3 mps 694 mmHg 58%
    07:00 +20°C° 0 mm 3 mps 694 mmHg 56%
    08:00 +22°C° 0 mm 4 mps 695 mmHg 47%
    09:00 +25°C° 0 mm 5 mps 695 mmHg 38%
    10:00 +28°C° 0 mm 5 mps 695 mmHg 29%
    11:00 +29°C° 0 mm 6 mps 694 mmHg 25%
    12:00 +30°C° 0 mm 6 mps 694 mmHg 21%
    13:00 +33°C° 0 mm 7 mps 693 mmHg 17%
    14:00 +33°C° 0 mm 7 mps 693 mmHg 16%
    15:00 +33°C° 0 mm 8 mps 693 mmHg 15%
    16:00 +33°C° 0 mm 8 mps 692 mmHg 14%
    17:00 +30°C° 0 mm 7 mps 693 mmHg 15%
    18:00 +28°C° 0 mm 6 mps 693 mmHg 17%
    19:00 +26°C° 0 mm 6 mps 693 mmHg 18%
    20:00 +26°C° 0.1 mm 5 mps 693 mmHg 20%
    21:00 +25°C° 0.1 mm 4 mps 693 mmHg 21%
    22:00 +23°C° 0.1 mm 4 mps 693 mmHg 22%
    23:00 +22°C° 0 mm 4 mps 692 mmHg 25%

    29 September, Saturday

    Time Temperature Precipitation Wind Pressure Humidity
    00:00 +22°C° 0 mm 4 mps 691 mmHg 28%
    01:00 +21°C° 0 mm 4 mps 691 mmHg 31%
    02:00 +20°C° 0 mm 4 mps 690 mmHg 32%
    03:00 +20°C° 0 mm 4 mps 690 mmHg 34%
    04:00 +19°C° 0 mm 3 mps 689 mmHg 35%
    05:00 +20°C° 0 mm 4 mps 690 mmHg 33%
    06:00 +21°C° 0 mm 4 mps 690 mmHg 31%
    07:00 +22°C° 0 mm 5 mps 691 mmHg 28%
    08:00 +24°C° 0 mm 7 mps 691 mmHg 24%
    09:00 +28°C° 0 mm 9 mps 691 mmHg 19%
    10:00 +31°C° 0 mm 11 mps 691 mmHg 15%
    11:00 +31°C° 0.1 mm 12 mps 690 mmHg 15%
    12:00 +31°C° 0.1 mm 13 mps 690 mmHg 16%
    13:00 +31°C° 0.1 mm 14 mps 689 mmHg 16%
    14:00 +29°C° 0.1 mm 14 mps 689 mmHg 17%
    15:00 +28°C° 0.1 mm 14 mps 688 mmHg 18%
    16:00 +27°C° 0.1 mm 14 mps 688 mmHg 18%
    17:00 +26°C° 0.1 mm 13 mps 688 mmHg 19%
    18:00 +24°C° 0.1 mm 12 mps 689 mmHg 20%
    19:00 +23°C° 0.1 mm 11 mps 689 mmHg 21%
    20:00 +23°C° 0.1 mm 12 mps 689 mmHg 21%
    21:00 +23°C° 0.1 mm 12 mps 690 mmHg 21%
    22:00 +22°C° 0.1 mm 12 mps 690 mmHg 21%
    23:00 +22°C° 0.1 mm 12 mps 690 mmHg 21%

    30 September, Sunday

    Time Temperature Precipitation Wind Pressure Humidity
    00:00 +21°C° 0.1 mm 12 mps 690 mmHg 22%
    01:00 +21°C° 0.1 mm 11 mps 690 mmHg 22%
    02:00 +19°C° 0.1 mm 11 mps 691 mmHg 23%
    03:00 +19°C° 0.1 mm 10 mps 692 mmHg 25%
    04:00 +18°C° 0.1 mm 10 mps 692 mmHg 26%
    05:00 +16°C° 0.1 mm 9 mps 693 mmHg 30%
    06:00 +15°C° 0.1 mm 9 mps 694 mmHg 35%
    07:00 +12°C° 0.1 mm 8 mps 694 mmHg 39%
    08:00 +13°C° 0.1 mm 8 mps 695 mmHg 37%
    09:00 +15°C° 0.1 mm 8 mps 695 mmHg 34%
    10:00 +16°C° 0.1 mm 7 mps 695 mmHg 32%
    11:00 +16°C° 0.1 mm 7 mps 695 mmHg 31%
    12:00 +17°C° 0.1 mm 7 mps 694 mmHg 31%
    13:00 +17°C° 0.1 mm 7 mps 694 mmHg 30%
    14:00 +17°C° 0.1 mm 7 mps 694 mmHg 31%
    15:00 +17°C° 0.1 mm 7 mps 694 mmHg 31%
    16:00 +16°C° 0.1 mm 7 mps 694 mmHg 31%
    17:00 +16°C° 0.1 mm 6 mps 694 mmHg 33%
    18:00 +15°C° 0.1 mm 5 mps 695 mmHg 34%
    19:00 +14°C° 0.1 mm 5 mps 696 mmHg 35%
    20:00 +13°C° 0 mm 4 mps 696 mmHg 36%
    21:00 +12°C° 0 mm 4 mps 696 mmHg 37%
    22:00 +12°C° 0 mm 4 mps 696 mmHg 38%
    23:00 +11°C° 0 mm 4 mps 696 mmHg 39%

    1 October, Monday

    Time Temperature Precipitation Wind Pressure Humidity
    00:00 +9°C° 0 mm 5 mps 696 mmHg 40%
    01:00 +9°C° 0 mm 5 mps 695 mmHg 41%
    02:00 +8°C° 0 mm 5 mps 696 mmHg 43%
    03:00 +8°C° 0 mm 5 mps 696 mmHg 44%
    04:00 +7°C° 0 mm 5 mps 696 mmHg 46%
    05:00 +8°C° 0 mm 5 mps 696 mmHg 46%
    06:00 +8°C° 0 mm 6 mps 697 mmHg 45%
    07:00 +9°C° 0 mm 6 mps 697 mmHg 45%
    08:00 +10°C° 0 mm 6 mps 697 mmHg 42%
    09:00 +11°C° 0 mm 6 mps 697 mmHg 38%
    10:00 +14°C° 0 mm 6 mps 697 mmHg 35%
    11:00 +15°C° 0.1 mm 6 mps 697 mmHg 33%
    12:00 +16°C° 0.1 mm 6 mps 697 mmHg 32%
    13:00 +17°C° 0.1 mm 6 mps 696 mmHg 30%
    14:00 +17°C° 0.1 mm 6 mps 696 mmHg 30%
    15:00 +17°C° 0.1 mm 5 mps 696 mmHg 30%
    16:00 +17°C° 0.1 mm 5 mps 696 mmHg 30%
    17:00 +15°C° 0 mm 5 mps 697 mmHg 33%
    18:00 +14°C° 0 mm 5 mps 697 mmHg 36%
    19:00 +13°C° 0 mm 4 mps 698 mmHg 39%
    20:00 +13°C° 0 mm 4 mps 698 mmHg 42%
    21:00 +12°C° 0 mm 4 mps 698 mmHg 45%
    22:00 +12°C° 0 mm 4 mps 698 mmHg 48%
    23:00 +11°C° 0 mm 4 mps 698 mmHg 51%
    Show more